Location: Korczew
(51.3586°N, 19.4491°E)
Time: 08:43:41
(UTC+00:00)

Cosmos 1666 Rocket - Pass Details

Date: 19 May 2025
Orbit: 599 x 625 km, 82.5° (Epoch: 16 June)

Event Time Altitude Azimuth Distance (km) Brightness Sun altitude
Rises 22:16:38 0° 354° (N) 2,880 8.7 -18.5°
Reaches altitude 10° 22:18:57 10° 1° (N) 1,975 7.4 -18.5°
Maximum altitude 22:23:08 44° 74° (ENE) 857 4.3 -18.6°
Enters shadow 22:24:58 28° 127° (SE) 1,159 4.6 -18.6°
